sat.trackr.live / text

‹ back to catalog

UNKNOWN

NORAD 82180

UNKNOWN UNKNOWN UNKNOWN

§ Identity

Operator
Country
Launch date
Launch site
Launch vehicle
Mass (kg)
RCS (m²)

External: N2YO · Heavens-Above

§ Orbital elements

Epoch: 2026-05-22T12:39:48.491712Z

Period
98.85 min
Inclination
65.6514°
Eccentricity
0.0282063
Mean motion
14.56803542 rev/d
Perigee alt
503.8 km
Apogee alt
903.3 km
Semi-major
7,081.7 km
B*
9.5190e-4
RAAN
191.6443°
Arg perigee
133.5047°
Mean anomaly
228.9880°
Rev number
62,512

§ Raw data

UNKNOWN1 82180U          26142.52764458  .00007249  00000+0  95190-3 0  99932 82180  65.6514 191.6443 0282063 133.5047 228.9880 14.56803542625121

JSON: /api/v1/satellites/82180 · /tle

For live sub-satellite position, see the globe view (requires WebGL).

§ Visibility from observer

Set your observer location to see the next 7 days of passes ≥ 10°. The values pass through the URL so the page stays shareable.

No JS? Fill the form by hand. The geolocation button needs JavaScript.